• In Deutschland
  • Länderverzeichnis
  • Für 7 Tage
  • Wassertemperatur
  • Satellitenkarten
  • Wetterkarte
  • Widgets
  • user-avatar
    Anmelden

    Stündliche Wetter Ganja

    Heute, 18 August, Samstag

    Zeit Temperatur Niederschläge Wind Luftdruck Luftfeuchtigkeit
    00:00 +27°C° 0 mm 3 m/S 722 mmHg 58%
    01:00 +26°C° 0,2 mm 3 m/S 722 mmHg 60%
    02:00 +26°C° 0,2 mm 2 m/S 721 mmHg 62%
    03:00 +25°C° 0 mm 2 m/S 721 mmHg 66%
    04:00 +25°C° 0,2 mm 2 m/S 721 mmHg 66%
    05:00 +25°C° 0,2 mm 2 m/S 721 mmHg 67%
    06:00 +25°C° 0,2 mm 1 m/S 721 mmHg 68%
    07:00 +26°C° 0,1 mm 2 m/S 721 mmHg 62%
    08:00 +27°C° 0,1 mm 2 m/S 721 mmHg 57%
    09:00 +29°C° 0 mm 2 m/S 721 mmHg 50%
    10:00 +30°C° 0,1 mm 3 m/S 721 mmHg 47%
    11:00 +31°C° 0,1 mm 3 m/S 721 mmHg 44%
    12:00 +34°C° 0,1 mm 4 m/S 721 mmHg 40%
    13:00 +34°C° 0,1 mm 4 m/S 720 mmHg 39%
    14:00 +35°C° 0,1 mm 5 m/S 720 mmHg 37%
    15:00 +35°C° 0,1 mm 5 m/S 720 mmHg 36%
    16:00 +35°C° 0,1 mm 5 m/S 720 mmHg 38%
    17:00 +34°C° 0,1 mm 5 m/S 720 mmHg 40%
    18:00 +33°C° 0,1 mm 5 m/S 720 mmHg 42%
    19:00 +32°C° 0,1 mm 4 m/S 720 mmHg 46%
    20:00 +29°C° 0,1 mm 4 m/S 720 mmHg 49%
    21:00 +28°C° 0,1 mm 4 m/S 721 mmHg 53%
    22:00 +27°C° 0 mm 4 m/S 721 mmHg 55%
    23:00 +27°C° 0 mm 4 m/S 721 mmHg 58%

    Morgen, 19 August, Sonntag

    Zeit Temperatur Niederschläge Wind Luftdruck Luftfeuchtigkeit
    00:00 +26°C° 0 mm 3 m/S 721 mmHg 60%
    01:00 +25°C° 0,1 mm 3 m/S 721 mmHg 62%
    02:00 +25°C° 0,1 mm 2 m/S 721 mmHg 64%
    03:00 +24°C° 0,1 mm 2 m/S 721 mmHg 66%
    04:00 +24°C° 0,1 mm 2 m/S 722 mmHg 66%
    05:00 +24°C° 0,1 mm 1 m/S 722 mmHg 67%
    06:00 +24°C° 0,1 mm 1 m/S 722 mmHg 68%
    07:00 +25°C° 0,3 mm 1 m/S 722 mmHg 64%
    08:00 +26°C° 0,3 mm 2 m/S 722 mmHg 60%
    09:00 +27°C° 0,3 mm 2 m/S 722 mmHg 56%
    10:00 +28°C° 0,3 mm 2 m/S 722 mmHg 53%
    11:00 +29°C° 0,3 mm 2 m/S 721 mmHg 50%
    12:00 +30°C° 0,3 mm 2 m/S 721 mmHg 47%
    13:00 +31°C° 0,2 mm 3 m/S 721 mmHg 44%
    14:00 +31°C° 0,2 mm 3 m/S 721 mmHg 41%
    15:00 +33°C° 0,2 mm 4 m/S 721 mmHg 39%
    16:00 +32°C° 0,2 mm 4 m/S 721 mmHg 41%
    17:00 +32°C° 0,2 mm 4 m/S 721 mmHg 43%
    18:00 +30°C° 0,2 mm 4 m/S 721 mmHg 45%
    19:00 +29°C° 0,2 mm 5 m/S 722 mmHg 46%
    20:00 +28°C° 0,2 mm 5 m/S 722 mmHg 47%
    21:00 +27°C° 0,2 mm 6 m/S 723 mmHg 48%
    22:00 +26°C° 0 mm 5 m/S 723 mmHg 49%
    23:00 +26°C° 0 mm 5 m/S 723 mmHg 51%

    übermorgen, 20 August, Montag

    Zeit Temperatur Niederschläge Wind Luftdruck Luftfeuchtigkeit
    00:00 +25°C° 0 mm 5 m/S 724 mmHg 53%
    01:00 +25°C° 0 mm 5 m/S 724 mmHg 55%
    02:00 +23°C° 0 mm 4 m/S 724 mmHg 57%
    03:00 +23°C° 0 mm 4 m/S 724 mmHg 59%
    04:00 +23°C° 0 mm 4 m/S 724 mmHg 61%
    05:00 +23°C° 0 mm 4 m/S 724 mmHg 63%
    06:00 +22°C° 0 mm 4 m/S 725 mmHg 64%
    07:00 +23°C° 0 mm 4 m/S 725 mmHg 61%
    08:00 +25°C° 0 mm 5 m/S 725 mmHg 58%
    09:00 +26°C° 0 mm 5 m/S 726 mmHg 55%
    10:00 +27°C° 0 mm 5 m/S 726 mmHg 52%
    11:00 +28°C° 0 mm 5 m/S 726 mmHg 50%
    12:00 +28°C° 0 mm 6 m/S 726 mmHg 47%
    13:00 +29°C° 0 mm 6 m/S 726 mmHg 45%
    14:00 +30°C° 0 mm 6 m/S 726 mmHg 42%
    15:00 +30°C° 0 mm 6 m/S 725 mmHg 40%
    16:00 +30°C° 0 mm 6 m/S 725 mmHg 41%
    17:00 +29°C° 0 mm 6 m/S 725 mmHg 43%
    18:00 +28°C° 0 mm 6 m/S 725 mmHg 44%
    19:00 +27°C° 0 mm 5 m/S 726 mmHg 47%
    20:00 +26°C° 0 mm 5 m/S 726 mmHg 51%
    21:00 +23°C° 0 mm 5 m/S 727 mmHg 54%
    22:00 +23°C° 0 mm 4 m/S 727 mmHg 56%
    23:00 +22°C° 0 mm 4 m/S 727 mmHg 58%

    21 August, Dienstag

    Zeit Temperatur Niederschläge Wind Luftdruck Luftfeuchtigkeit
    00:00 +22°C° 0 mm 4 m/S 727 mmHg 60%
    01:00 +21°C° 0 mm 4 m/S 726 mmHg 62%
    02:00 +21°C° 0 mm 3 m/S 726 mmHg 64%
    03:00 +20°C° 0 mm 2 m/S 726 mmHg 65%
    04:00 +20°C° 0 mm 2 m/S 726 mmHg 66%
    05:00 +21°C° 0 mm 1 m/S 726 mmHg 67%
    06:00 +21°C° 0 mm 1 m/S 726 mmHg 67%
    07:00 +22°C° 0 mm 1 m/S 726 mmHg 62%
    08:00 +24°C° 0 mm 1 m/S 726 mmHg 58%
    09:00 +25°C° 0 mm 2 m/S 726 mmHg 53%
    10:00 +26°C° 0 mm 2 m/S 726 mmHg 49%
    11:00 +28°C° 0 mm 3 m/S 725 mmHg 45%
    12:00 +29°C° 0 mm 3 m/S 725 mmHg 42%
    13:00 +30°C° 0 mm 3 m/S 725 mmHg 40%
    14:00 +30°C° 0 mm 3 m/S 724 mmHg 39%
    15:00 +32°C° 0 mm 4 m/S 724 mmHg 38%
    16:00 +30°C° 0 mm 3 m/S 724 mmHg 39%
    17:00 +30°C° 0 mm 3 m/S 724 mmHg 41%
    18:00 +30°C° 0 mm 3 m/S 724 mmHg 43%
    19:00 +28°C° 0 mm 3 m/S 725 mmHg 46%
    20:00 +27°C° 0 mm 2 m/S 725 mmHg 49%
    21:00 +26°C° 0 mm 2 m/S 726 mmHg 52%
    22:00 +25°C° 0 mm 2 m/S 726 mmHg 53%
    23:00 +25°C° 0 mm 2 m/S 726 mmHg 55%

    22 August, Mittwoch

    Zeit Temperatur Niederschläge Wind Luftdruck Luftfeuchtigkeit
    00:00 +24°C° 0 mm 2 m/S 726 mmHg 56%
    01:00 +24°C° 0 mm 1 m/S 726 mmHg 57%
    02:00 +23°C° 0 mm 1 m/S 726 mmHg 58%
    03:00 +23°C° 0 mm 1 m/S 725 mmHg 60%
    04:00 +23°C° 0 mm 1 m/S 725 mmHg 59%
    05:00 +23°C° 0 mm 1 m/S 726 mmHg 58%
    06:00 +23°C° 0 mm 1 m/S 726 mmHg 58%
    07:00 +25°C° 0 mm 1 m/S 726 mmHg 53%
    08:00 +26°C° 0 mm 1 m/S 726 mmHg 48%
    09:00 +28°C° 0 mm 2 m/S 726 mmHg 43%
    10:00 +29°C° 0 mm 2 m/S 725 mmHg 41%
    11:00 +30°C° 0 mm 2 m/S 725 mmHg 38%
    12:00 +31°C° 0 mm 3 m/S 724 mmHg 35%
    13:00 +33°C° 0 mm 3 m/S 724 mmHg 33%
    14:00 +34°C° 0 mm 3 m/S 724 mmHg 32%
    15:00 +34°C° 0 mm 3 m/S 724 mmHg 30%
    16:00 +34°C° 0 mm 3 m/S 724 mmHg 32%
    17:00 +33°C° 0 mm 3 m/S 724 mmHg 34%
    18:00 +31°C° 0 mm 3 m/S 724 mmHg 36%
    19:00 +30°C° 0 mm 3 m/S 725 mmHg 38%
    20:00 +29°C° 0 mm 3 m/S 725 mmHg 41%
    21:00 +27°C° 0 mm 3 m/S 726 mmHg 44%
    22:00 +27°C° 0 mm 3 m/S 726 mmHg 46%
    23:00 +26°C° 0 mm 3 m/S 726 mmHg 48%

    23 August, Donnerstag

    Zeit Temperatur Niederschläge Wind Luftdruck Luftfeuchtigkeit
    00:00 +25°C° 0 mm 3 m/S 726 mmHg 50%
    01:00 +25°C° 0 mm 2 m/S 726 mmHg 52%
    02:00 +24°C° 0 mm 2 m/S 726 mmHg 54%
    03:00 +24°C° 0 mm 1 m/S 726 mmHg 56%
    04:00 +24°C° 0 mm 1 m/S 726 mmHg 56%
    05:00 +24°C° 0 mm 1 m/S 726 mmHg 57%
    06:00 +24°C° 0 mm 1 m/S 727 mmHg 57%
    07:00 +25°C° 0 mm 1 m/S 727 mmHg 52%
    08:00 +27°C° 0 mm 1 m/S 727 mmHg 47%
    09:00 +28°C° 0 mm 2 m/S 727 mmHg 42%
    10:00 +30°C° 0 mm 2 m/S 726 mmHg 39%
    11:00 +31°C° 0 mm 3 m/S 726 mmHg 36%
    12:00 +33°C° 0 mm 4 m/S 725 mmHg 32%
    13:00 +34°C° 0 mm 4 m/S 725 mmHg 31%
    14:00 +34°C° 0 mm 5 m/S 725 mmHg 30%
    15:00 +35°C° 0 mm 5 m/S 725 mmHg 29%
    16:00 +34°C° 0 mm 5 m/S 725 mmHg 30%
    17:00 +34°C° 0 mm 5 m/S 725 mmHg 32%
    18:00 +33°C° 0 mm 5 m/S 725 mmHg 34%
    19:00 +30°C° 0 mm 5 m/S 726 mmHg 35%
    20:00 +29°C° 0 mm 5 m/S 726 mmHg 37%
    21:00 +27°C° 0 mm 5 m/S 727 mmHg 38%
    22:00 +27°C° 0 mm 5 m/S 727 mmHg 40%
    23:00 +26°C° 0 mm 4 m/S 727 mmHg 41%
    Mehr zeigen